Location: Newark
(59.4564°N, 26.6917°E)
Time: 05:36:14
(UTC+00:00)

SR - Pass Details

Date: 30 November 2019
Orbit: 573 x 882 km, 66.7° (Epoch: 10 December)

Event Time Altitude Azimuth Distance (km) Brightness Sun altitude
Rises 14:58:57 0° 288° (WNW) 3,429 ? -10.9°
Reaches altitude 10° 15:01:32 10° 295° (WNW) 2,519 ? -11.2°
Maximum altitude 15:07:08 43° 6° (N) 1,235 ? -11.9°
Enters shadow 15:11:26 17° 71° (ENE) 2,100 ? -12.4°
Drops below altitude 10° 15:12:47 10° 77° (ENE) 2,542 - -12.6°
Sets 15:15:24 0° 84° (E) 3,464 - -12.9°
